Home   Weather   Talca   Past weeks

Flag for Chile Past Weather in Talca, Chile — Yesterday and Last 2 Weeks

Now
68 °F

Sunny.


Feels Like: 68 °F
Forecast: N/A
Wind: 20 mph from Southwest

Location: Concepcion Airport

Current Time: Nov 21, 2017 at 4:59:38 pm

Latest Report: Nov 21, 2017 at 4:00 pm


Visibility: 10 mi

Pressure: 30.12 "Hg

Humidity: 53%

Dew Point: 50 °F

Location of TalcaLocation

Past Weather in Talca — Graph

°F

Talca Temperature Yesterday

Maximum temperature yesterday: 66 °F (at 5:00 pm)
Minimum temperature yesterday: 48 °F (at 7:00 am)
Average temperature yesterday: 57 °F

High & Low Weather Summary for the Past Weeks

 TemperatureHumidityPressure
High72 °F (Nov 11, 4:00 pm)100% (Nov 11, 7:00 am)30.27 "Hg (Nov 11, 7:00 am)
Low45 °F (Nov 18, 4:00 am)21% (Nov 19, 10:00 pm)29.89 "Hg (Nov 11, 8:00 pm)
Average58 °F74%30.06 "Hg
* Reported Nov 6 3:00 pm — Nov 21 3:00 pm, Talca. Weather by CustomWeather, © 2017

Note: Actual official high and low records may vary slightly from our data, if they occured in-between our weather recording intervals... More about our weather records

Advertising

Talca Weather History for the Previous 24 Hours

Scroll right to see more
 ConditionsComfort  
Time TempWeatherWind HumidityBarometerVisibility
3:00 pm
Tue, Nov 21
68 °FSunny.16 mph49%30.12 "Hg10 mi
2:00 pm68 °FSunny.16 mph46%30.15 "Hg10 mi
1:00 pm68 °FSunny.15 mph43%30.15 "Hg10 mi
12:00 pm68 °FSunny.12 mph38%30.18 "Hg10 mi
11:00 am64 °FSunny.15 mph52%30.18 "Hg10 mi
10:00 am61 °FPassing clouds.12 mph55%30.18 "HgN/A
9:00 am59 °FSunny.9 mph51%30.21 "Hg10 mi
8:00 am55 °FSunny.5 mph59%30.18 "Hg10 mi
7:00 am52 °FSunny.6 mph77%30.18 "Hg10 mi
6:00 am50 °FClear.6 mph94%30.18 "Hg10 mi
5:00 am46 °FClear.6 mph93%30.18 "Hg10 mi
4:00 am46 °FClear.8 mph93%30.18 "Hg10 mi
3:00 am48 °FClear.8 mph87%30.21 "Hg10 mi
2:00 am48 °FClear.7 mph87%30.21 "Hg10 mi
1:00 am50 °FClear.8 mph82%30.21 "Hg10 mi
12:00 am52 °FClear.7 mph77%30.21 "Hg10 mi
11:00 pm
Mon, Nov 20
54 °FClear.8 mph72%30.18 "Hg10 mi
10:00 pm55 °FClear.10 mph67%30.18 "Hg10 mi
9:00 pm57 °FClear.13 mph55%30.15 "Hg10 mi
8:00 pm61 °FSunny.13 mph55%30.12 "Hg10 mi
7:00 pm63 °FSunny.16 mph56%30.12 "Hg10 mi
6:00 pm64 °FSunny.15 mph56%30.09 "Hg10 mi
5:00 pm66 °FSunny.15 mph49%30.09 "Hg10 mi
4:00 pm64 °FSunny.16 mph52%30.09 "Hg10 mi
Weather by CustomWeather, © 2017

See weather overview